Latest Weather Observations for Kurnell

IDN60801

Issued at 8:05 am EST Thursday 21 August 2014 (issued every 30 minutes, with the page automatically refreshed every 10 minutes)

About weather observations | Map of weather stations | Latest weather observations for NSW | Other Formats
Station Details ID: 066043 Name: KURNELL AWS Lat: -34.00 Lon: 151.21 Height: 4.0 m
Data from the previous 72 hours. | See also: Recent months for locations in New South Wales
Date/Time
EST
Temp
°C
App
Temp
°C
Dew
Point
Rel
Hum
%
Delta-T
°C
Wind Press
QNH
hPa
Press
MSL
hPa
Rain
since 9 am
mm
Dir
 
Spd
km/h
Gust
km/h
Spd
kts
Gust
kts
21/08:00am - - - - - SW 22 33 12 18 - - -
21/07:30am - - - - - WSW 13 19 7 10 - - -
21/07:00am - - - - - SW 20 30 11 16 - - -
21/06:30am - - - - - SW 20 24 11 13 - - -
21/06:00am - - - - - WSW 17 17 9 9 - - -
21/05:30am - - - - - SW 30 39 16 21 - - -
21/05:28am - - - - - SW 28 39 15 21 - - -
21/05:00am - - - - - WSW 15 17 8 9 - - -
21/04:30am - - - - - SW 19 28 10 15 - - -
21/04:00am - - - - - SW 20 26 11 14 - - -
21/03:30am - - - - - S 32 41 17 22 - - -
21/03:20am - - - - - SSW 28 37 15 20 - - -
21/03:00am - - - - - SSW 9 19 5 10 - - -
21/02:30am - - - - - SSW 15 24 8 13 - - -
21/02:00am - - - - - S 20 32 11 17 - - -
21/01:30am - - - - - SSE 20 28 11 15 - - -
21/01:00am - - - - - SW 13 20 7 11 - - -
21/12:30am - - - - - WSW 17 20 9 11 - - -
21/12:00am - - - - - WSW 17 22 9 12 - - -
 
Date/Time
EST
Temp
°C
App
Temp
°C
Dew
Point
Rel
Hum
%
Delta-T
°C
Wind Press
QNH
hPa
Press
MSL
hPa
Rain
since 9 am
mm
Dir
 
Spd
km/h
Gust
km/h
Spd
kts
Gust
kts
20/11:30pm - - - - - SW 17 20 9 11 - - -
20/11:00pm - - - - - SW 20 26 11 14 - - -
20/10:30pm - - - - - SSW 17 28 9 15 - - -
20/10:00pm - - - - - SSW 17 24 9 13 - - -
20/09:30pm - - - - - SSW 24 30 13 16 - - -
20/09:00pm - - - - - S 24 33 13 18 - - -
20/08:30pm - - - - - S 24 33 13 18 - - -
20/08:00pm - - - - - S 26 35 14 19 - - -
20/07:30pm - - - - - S 26 35 14 19 - - -
20/07:00pm - - - - - S 24 33 13 18 - - -
20/06:30pm - - - - - SSW 26 33 14 18 - - -
20/06:00pm - - - - - SSW 26 33 14 18 - - -
20/05:30pm - - - - - SSW 24 33 13 18 - - -
20/05:00pm - - - - - S 28 37 15 20 - - -
20/04:30pm - - - - - S 26 35 14 19 - - -
20/04:00pm - - - - - S 28 35 15 19 - - -
20/03:30pm - - - - - S 32 39 17 21 - - -
20/03:00pm - - - - - SSW 33 48 18 26 - - -
20/02:30pm - - - - - SSW 30 41 16 22 - - -
20/02:00pm - - - - - SSW 32 41 17 22 - - -
20/01:30pm - - - - - SSW 32 44 17 24 - - -
20/01:00pm - - - - - S 30 44 16 24 - - -
20/12:30pm - - - - - SSW 30 41 16 22 - - -
20/12:00pm - - - - - SSW 32 44 17 24 - - -
20/11:30am - - - - - SSW 35 50 19 27 - - -
20/11:00am - - - - - SSW 32 43 17 23 - - -
20/10:30am - - - - - SSW 33 48 18 26 - - -
20/10:00am - - - - - SW 32 43 17 23 - - -
20/09:30am - - - - - SW 32 43 17 23 - - -
20/09:00am - - - - - SW 32 41 17 22 - - -
20/08:30am - - - - - SW 35 44 19 24 - - -
20/08:00am - - - - - WSW 26 37 14 20 - - -
20/07:30am - - - - - WSW 20 30 11 16 - - -
20/07:00am - - - - - WSW 24 32 13 17 - - -
20/06:30am - - - - - WSW 24 30 13 16 - - -
20/06:00am - - - - - W 20 28 11 15 - - -
20/05:30am - - - - - WSW 22 30 12 16 - - -
20/05:00am - - - - - SW 24 32 13 17 - - -
20/04:47am - - - - - SW 32 50 17 27 - - -
20/04:30am - - - - - SW 33 50 18 27 - - -
20/04:13am - - - - - SW 30 48 16 26 - - -
20/04:00am - - - - - SSW 33 50 18 27 - - -
20/03:58am - - - - - SW 32 50 17 27 - - -
20/03:30am - - - - - SW 33 46 18 25 - - -
20/03:00am - - - - - SSW 37 46 20 25 - - -
20/02:53am - - - - - SW 28 50 15 27 - - -
20/02:30am - - - - - SW 28 35 15 19 - - -
20/02:00am - - - - - SSW 32 43 17 23 - - -
20/01:30am - - - - - SW 33 46 18 25 - - -
20/01:00am - - - - - SSW 33 46 18 25 - - -
20/12:30am - - - - - SW 37 50 20 27 - - -
20/12:00am - - - - - SSW 41 57 22 31 - - -
 
Date/Time
EST
Temp
°C
App
Temp
°C
Dew
Point
Rel
Hum
%
Delta-T
°C
Wind Press
QNH
hPa
Press
MSL
hPa
Rain
since 9 am
mm
Dir
 
Spd
km/h
Gust
km/h
Spd
kts
Gust
kts
19/11:30pm - - - - - SW 35 46 19 25 - - -
19/11:04pm - - - - - SW 37 56 20 30 - - -
19/11:00pm - - - - - SW 37 52 20 28 - - -
19/10:30pm - - - - - SW 39 56 21 30 - - -
19/10:07pm - - - - - SW 33 52 18 28 - - -
19/10:00pm - - - - - SW 35 48 19 26 - - -
19/09:34pm - - - - - SSW 35 54 19 29 - - -
19/09:30pm - - - - - SSW 32 46 17 25 - - -
19/09:15pm - - - - - SSW 37 56 20 30 - - -
19/09:00pm - - - - - SSW 43 54 23 29 - - -
19/08:38pm - - - - - SSW 43 61 23 33 - - -
19/08:30pm - - - - - SSW 46 61 25 33 - - -
19/08:04pm - - - - - SSW 41 59 22 32 - - -
19/08:00pm - - - - - SSW 46 59 25 32 - - -
19/07:30pm - - - - - SSW 46 65 25 35 - - -
19/07:00pm - - - - - SSW 39 57 21 31 - - -
19/06:30pm - - - - - SSW 41 59 22 32 - - -
19/06:11pm - - - - - SSW 39 57 21 31 - - -
19/06:00pm - - - - - SSW 37 50 20 27 - - -
19/05:30pm - - - - - SSW 43 65 23 35 - - -
19/05:18pm - - - - - S 39 57 21 31 - - -
19/05:13pm - - - - - S 41 52 22 28 - - -
19/05:00pm - - - - - SW 33 44 18 24 - - -
19/04:53pm - - - - - SW 37 56 20 30 - - -
19/04:30pm - - - - - SW 39 50 21 27 - - -
19/04:03pm - - - - - SSW 41 59 22 32 - - -
19/04:00pm - - - - - SSW 37 54 20 29 - - -
19/03:44pm - - - - - SSW 43 67 23 36 - - -
19/03:30pm - - - - - SSW 41 57 22 31 - - -
19/03:13pm - - - - - SSW 35 54 19 29 - - -
19/03:00pm - - - - - SSW 43 59 23 32 - - -
19/02:38pm - - - - - SSW 43 63 23 34 - - -
19/02:30pm - - - - - S 41 56 22 30 - - -
19/02:00pm - - - - - SSW 35 54 19 29 - - -
19/01:41pm - - - - - SSW 39 57 21 31 - - -
19/01:30pm - - - - - SSW 43 59 23 32 - - -
19/01:00pm - - - - - S 50 69 27 37 - - -
19/12:32pm - - - - - SSW 35 56 19 30 - - -
19/12:30pm - - - - - SSW 35 46 19 25 - - -
19/12:00pm - - - - - S 35 56 19 30 - - -
19/11:44am - - - - - SSW 43 61 23 33 - - -
19/11:30am - - - - - SW 39 56 21 30 - - -
19/11:00am - - - - - SW 41 57 22 31 - - -
19/10:39am - - - - - SSW 35 59 19 32 - - -
19/10:30am - - - - - SSW 35 50 19 27 - - -
19/10:00am - - - - - SW 33 48 18 26 - - -
19/09:30am - - - - - SSW 37 57 20 31 - - -
19/09:07am - - - - - SSW 44 63 24 34 - - -
19/09:00am - - - - - S 48 63 26 34 - - -
19/08:30am - - - - - S 44 63 24 34 - - -
19/08:01am - - - - - SSW 44 63 24 34 - - -
19/08:00am - - - - - SSW 46 63 25 34 - - -
19/07:47am - - - - - S 43 65 23 35 - - -
19/07:30am - - - - - S 43 57 23 31 - - -
19/07:00am - - - - - S 43 61 23 33 - - -
19/06:30am - - - - - S 39 67 21 36 - - -
19/06:00am - - - - - S 44 63 24 34 - - -
19/05:30am - - - - - S 44 63 24 34 - - -
19/05:00am - - - - - S 41 59 22 32 - - -
19/04:42am - - - - - S 39 69 21 37 - - -
19/04:30am - - - - - SSW 43 54 23 29 - - -
19/04:00am - - - - - S 44 69 24 37 - - -
19/03:30am - - - - - S 39 57 21 31 - - -
19/03:03am - - - - - S 35 54 19 29 - - -
19/03:00am - - - - - S 39 54 21 29 - - -
19/02:30am - - - - - S 43 63 23 34 - - -
19/02:09am - - - - - SSW 39 57 21 31 - - -
19/02:00am - - - - - S 37 50 20 27 - - -
19/01:30am - - - - - S 41 59 22 32 - - -
19/01:08am - - - - - S 33 56 18 30 - - -
19/01:00am - - - - - S 33 50 18 27 - - -
19/12:30am - - - - - S 37 56 20 30 - - -
19/12:00am - - - - - S 35 56 19 30 - - -
 
Date/Time
EST
Temp
°C
App
Temp
°C
Dew
Point
Rel
Hum
%
Delta-T
°C
Wind Press
QNH
hPa
Press
MSL
hPa
Rain
since 9 am
mm
Dir
 
Spd
km/h
Gust
km/h
Spd
kts
Gust
kts
18/11:30pm - - - - - S 33 56 18 30 - - -
18/11:26pm - - - - - S 35 56 19 30 - - -
18/11:00pm - - - - - S 30 39 16 21 - - -
18/10:30pm - - - - - S 37 56 20 30 - - -
18/10:00pm - - - - - S 37 57 20 31 - - -
18/09:30pm - - - - - S 41 61 22 33 - - -
18/09:00pm - - - - - SSW 41 59 22 32 - - -
18/08:31pm - - - - - S 39 59 21 32 - - -
18/08:30pm - - - - - S 37 54 20 29 - - -
18/08:00pm - - - - - S 41 59 22 32 - - -
18/07:51pm - - - - - SSW 41 59 22 32 - - -
18/07:30pm - - - - - SSW 37 50 20 27 - - -
18/07:21pm - - - - - SSW 41 59 22 32 - - -
18/07:00pm - - - - - SSW 43 59 23 32 - - -
18/06:30pm - - - - - SW 39 59 21 32 - - -
18/06:00pm - - - - - SW 44 65 24 35 - - -
18/05:44pm - - - - - SW 46 69 25 37 - - -
18/05:30pm - - - - - SW 46 59 25 32 - - -
18/05:00pm - - - - - SW 48 69 26 37 - - -
18/04:43pm - - - - - SW 46 70 25 38 - - -
18/04:30pm - - - - - SW 46 61 25 33 - - -
18/04:00pm - - - - - SW 50 65 27 35 - - -
18/03:30pm - - - - - SW 50 69 27 37 - - -
18/03:00pm - - - - - SSW 50 70 27 38 - - -
18/02:30pm - - - - - SSW 52 74 28 40 - - -
18/02:00pm - - - - - SSW 48 69 26 37 - - -
18/01:30pm - - - - - S 44 70 24 38 - - -
18/01:00pm - - - - - S 46 74 25 40 - - -
18/12:30pm - - - - - S 46 65 25 35 - - -
18/12:01pm - - - - - S 48 70 26 38 - - -
18/12:00pm - - - - - S 48 65 26 35 - - -
18/11:30am - - - - - S 52 76 28 41 - - -
18/11:00am - - - - - S 44 63 24 34 - - -
18/10:30am - - - - - S 50 72 27 39 - - -
18/10:00am - - - - - SSE 43 61 23 33 - - -
18/09:30am - - - - - SSE 48 72 26 39 - - -
18/09:00am - - - - - S 46 72 25 39 - - -
18/08:30am - - - - - S 56 80 30 43 - - -

Other Formats:

Comma delimited format used in spreadsheet applications
http://www.bom.gov.au/fwo/IDN60801/IDN60801.95756.axf

JavaScript Object Notation format (JSON) in row-major order
http://www.bom.gov.au/fwo/IDN60801/IDN60801.95756.json